Weather History for Bozeman, MT

Change the Weather History Date:

Saturday, March 15, 2014

  Actual Average Record
Temperature  
Mean Temperature 39 °F 36 °F  
Max Temperature 49 °F 49 °F 74 °F (1994)
Min Temperature 28 °F 23 °F -16 °F (1943)
Degree Days  
Heating Degree Days 26    
Month to date heating degree days 496  
Since 1 July heating degree days 6511  
Cooling Degree Days 0    
Month to date cooling degree days 0  
Year to date cooling degree days 0  
Moisture  
Dew Point 19 °F    
Average Humidity 47    
Maximum Humidity 70    
Minimum Humidity 24    
Precipitation  
Precipitation 0.00 in 0.03 in 0.66 in (1995)
Month to date precipitation 0.97 0.37  
Year to date precipitation 1.92 1.28  
Snow  
Snow 0.00 in 0.20 in 6.40 in (1995)
Month to date snowfall 3.1 3.5  
Since 1 July snowfall 28.1 25.8  
Snow Depth 0.00 in    
Sea Level Pressure  
Sea Level Pressure 30.27 in    
Wind  
Wind Speed 10 mph (West)    
Max Wind Speed 22 mph    
Max Gust Speed 27 mph    
Visibility 10 miles    
Events      
T = Trace of Precipitation, MM = Missing Value Source: NWS Daily Summary

Daily Weather History Graph

Daily Weather History Graph

Search for Another Location

Airport:

Trip Planner

Search our weather history database for the weather conditions in past years. The results will help you decide how hot, cold, wet, or windy it might be!

Date:

Astronomy

Mar. 15, 2014 Rise Set
Actual Time 7:37 AM MDT 7:30 PM MDT
Civil Twilight 7:07 AM MDT 8:00 PM MDT
Nautical Twilight 6:32 AM MDT 8:35 PM MDT
Astronomical Twilight 5:57 AM MDT 9:10 PM MDT
Moon 6:53 PM MDT (3/15) 6:52 AM MDT (3/15)
Length of Visible Light 12h 52m
Length of Day
11h 53m
Waxing Gibbous, 99% of the Moon is Illuminated
Mar 15
Waxing Gibbous
Mar 16
Full
Mar 23
Last Quarter
Mar 30
New
Apr 7
First Quarter

Hourly Weather History & Observations

Time (MDT) Temp. Windchill Dew Point Humidity Pressure Visibility Wind Dir Wind Speed Gust Speed Precip Events Conditions
12:56 AM 37.0 °F 28.5 °F 19.9 °F 50% 30.05 in 10.0 mi West 13.8 mph 20.7 mph N/A   Partly Cloudy
1:56 AM 35.1 °F 32.2 °F 21.0 °F 57% 30.06 in 10.0 mi West 3.5 mph - N/A   Overcast
2:56 AM 37.0 °F 29.3 °F 19.0 °F 48% 30.06 in 10.0 mi West 11.5 mph - N/A   Overcast
3:56 AM 37.0 °F 29.3 °F 19.0 °F 48% 30.09 in 10.0 mi West 11.5 mph - N/A   Overcast
4:56 AM 36.0 °F 30.3 °F 21.0 °F 55% 30.13 in 10.0 mi WNW 6.9 mph - N/A   Overcast
5:56 AM 34.0 °F - 25.0 °F 70% 30.18 in 10.0 mi Calm Calm - N/A   Overcast
6:56 AM 37.0 °F 27.4 °F 19.0 °F 48% 30.22 in 10.0 mi WNW 17.3 mph - N/A   Overcast
7:56 AM 37.0 °F 27.7 °F 19.0 °F 48% 30.27 in 10.0 mi WNW 16.1 mph - N/A   Overcast
8:56 AM 37.0 °F 27.7 °F 18.0 °F 46% 30.31 in 10.0 mi WNW 16.1 mph - N/A   Overcast
9:56 AM 37.0 °F 27.4 °F 19.9 °F 50% 30.34 in 10.0 mi WNW 17.3 mph - N/A   Scattered Clouds
10:56 AM 42.1 °F 35.2 °F 19.0 °F 40% 30.35 in 10.0 mi WNW 12.7 mph - N/A   Partly Cloudy
11:56 AM 43.0 °F 37.2 °F 18.0 °F 37% 30.36 in 10.0 mi WNW 10.4 mph - N/A   Partly Cloudy
12:56 PM 43.0 °F 36.4 °F 16.0 °F 34% 30.36 in 10.0 mi West 12.7 mph - N/A   Mostly Cloudy
1:56 PM 46.0 °F 42.5 °F 15.1 °F 29% 30.35 in 10.0 mi Variable 6.9 mph - N/A   Mostly Cloudy
2:56 PM 48.0 °F - 16.0 °F 28% 30.32 in 10.0 mi West 17.3 mph - N/A   Clear
3:56 PM 48.0 °F - 14.0 °F 26% 30.31 in 10.0 mi West 11.5 mph - N/A   Clear
4:56 PM 48.0 °F - 15.1 °F 27% 30.32 in 10.0 mi WSW 9.2 mph - N/A   Clear
5:56 PM 48.0 °F - 15.1 °F 27% 30.32 in 10.0 mi WSW 8.1 mph - N/A   Overcast
6:56 PM 46.9 °F - 18.0 °F 32% 30.32 in 10.0 mi SW 4.6 mph - N/A   Overcast
7:56 PM 45.0 °F 40.6 °F 19.9 °F 37% 30.34 in 10.0 mi SW 8.1 mph - N/A   Overcast
8:56 PM 45.0 °F 39.3 °F 19.9 °F 37% 30.35 in 10.0 mi West 11.5 mph - N/A   Overcast
9:56 PM 45.0 °F - 21.9 °F 40% 30.37 in 10.0 mi Calm Calm - N/A   Overcast
10:56 PM 42.1 °F 40.2 °F 23.0 °F 47% 30.35 in 10.0 mi West 3.5 mph - N/A   Overcast
11:56 PM 36.0 °F 30.3 °F 26.1 °F 67% 30.35 in 10.0 mi South 6.9 mph - N/A   Mostly Cloudy